Notices

What's New in latest Release from April 7th, 2021:

- Updated Glossary, including Speed of Maximum Gust, and Total Hourly Precipitation

- Updated national and regional climate services offices contacts and prices information

- Addition of station inventory lists for 1981-2010, 1971-2000, and 1961-1990 Normals.

If you haven't already, please take our survey and provide feedback about our website: https://eccc.sondage-survey.ca/f/LanguageSelection.aspx?s=442ca660-fcf1-47c0-95a9-59707d6fd709

Hourly Data Report for February 12, 2017

TORONTO CITY
ONTARIO

43°40'00.000" N
79°24'00.000" W
112.50 m
6158355
71508
XTO

Download Data

Hourly Data (February 2017)
Hourly Data Report for February 12, 2017
TIME
LST
Temp Definition
°C
Dew Point Definition
°C
Rel Hum Definition
%
Precip. Amount Definition
mm

Wind Dir Definition
10's deg

Wind Spd Definition
km/h
Visibility Definition
km
Stn Press Definition
kPa
Hmdx Definition


Wind Chill Definition


Weather Definition


00:00 1.2 -0.8 87 0.0 LegendMM LegendMM   100.35     LegendNANA
01:00 0.3 -1.6 87 0.0 LegendMM LegendMM   100.36     LegendNANA
02:00 -0.6 -2.2 89 0.0 LegendMM LegendMM   100.31     LegendNANA
03:00 -1.2 -2.5 91 0.0 LegendMM LegendMM   100.23     LegendNANA
04:00 -2.0 -3.1 92 0.0 LegendMM LegendMM   100.22     LegendNANA
05:00 -2.2 -3.1 93 0.5 LegendMM LegendMM   100.08     LegendNANA
06:00 -3.5 -4.7 92 0.6 LegendMM LegendMM   99.95     LegendNANA
07:00 -3.5 -4.6 92 0.7 LegendMM LegendMM   99.88     LegendNANA
08:00 -3.1 -4.3 92 0.9 LegendMM LegendMM   99.79     LegendNANA
09:00 -3.1 -4.3 91 1.1 LegendMM LegendMM   99.68     LegendNANA
10:00 -3.5 -4.8 91 1.6 LegendMM LegendMM   99.59     LegendNANA
11:00 -3.5 -4.5 93 2.7 LegendMM LegendMM   99.47     LegendNANA
12:00 -2.9 -3.9 93 2.3 LegendMM LegendMM   99.46     LegendNANA
13:00 -2.0 -3.0 92 1.9 LegendMM LegendMM   99.37     LegendNANA
14:00 -1.1 -2.5 90 1.0 LegendMM LegendMM   99.25     LegendNANA
15:00 -0.7 -2.7 86 0.0 LegendMM LegendMM   99.15     LegendNANA
16:00 -0.8 -2.6 87 0.0 LegendMM LegendMM   99.16     LegendNANA
17:00 -0.8 -1.7 94 1.0 LegendMM LegendMM   99.13     LegendNANA
18:00 0.3 -0.3 96 0.5 LegendMM LegendMM   99.09     LegendNANA
19:00 1.2 0.4 94 0.0 LegendMM LegendMM   99.06     LegendNANA
20:00 2.0 -0.4 84 0.0 LegendMM LegendMM   99.10     LegendNANA
21:00 0.8 -3.0 76 0.0 LegendMM LegendMM   99.21     LegendNANA
22:00 0.1 -3.3 78 0.0 LegendMM LegendMM   99.34     LegendNANA
23:00 -0.9 -4.9 75 0.0 LegendMM LegendMM   99.44     LegendNANA

Notes on Data Quality.

Legend

  • E = Estimated
  • M = Missing
  • NA = Not Available*
  • [empty] = Indicates an unobserved value
Date modified: